DELTA 1 DEB, 26846

Orbit data source: Space-Track

DELTA 1 DEB, 26846 is space debris in SSO originally from a launch on Thu, 12 Jun 1975 UTC launched from the Air Force Western Test Range (AFWTR). Debris objects in space refer to the collection of defunct objects orbiting the Earth. Examples of debris include non-operational satellites, rocket bodies, and fragments generated from explosions, collisions, or faulty payload assembly.

Loading next visibility...
Identifier
26846, 1975-052LA
Orbit
SSO
Country
Flag of USUS
Related business
Manufacturer
Unknown
Mission
Spacecraft
Bus & Motor
Unknown
Mass
Unknown
Launch date (UTC)
1975-06-12 (50 years ago)
Launch vehicle
Unknown
Launch site
Air Force Western Test Range (AFWTR)
Object type
Payload
Rocket body
Debris
Shape & HBR
Unknown shape, 0.1 m
Radar Cross Section
Small (<0.1 m²)

Expand to show TLE details & history
Last TLE update: 20 hours ago

TLE from 20 hours ago
0 DELTA 1 DEB
1 26846U 75052LA  25299.82347889  .00000079  00000-0  30083-3 0  9994
2 26846  99.7758 353.8238 0171192 114.6145 311.5693 13.12808899365818
Epoch: 2025-10-26T19:45Z
TLE epoch observation values (Epoch: 2025-10-26T19:45:48.576Z)
Latitude
63.07865°
Longitude
2.20872°
Altitude
1,138.09 km
Speed
7.33 km/s
True Right ascension
22h 16m 22s
True Declination
62° 56' 48"
Sunlit
Object was in daylight at epoch
Visualization orbit readout
Latitude
Unknown
Longitude
Unknown
Altitude
Unknown
Speed
Unknown
Apparent Right ascension
Unknown
Apparent Declination
Unknown
Sunlit
N/A
Visualization observer readout
Local Sidereal Time
10:51:18
Azimuth
Unknown
Elevation
Unknown
Doppler factor
Unknown
Orbital elements
Apogee altitude
1,339.564 km
Perigee altitude
1,079.769 km
Semi-major axis
7,587.804 km
Eccentricity
0.01712
Inclination
99.7758°
RAAN
353.8238°
Arg. of periapsis
114.6145°
True anomaly
310.08068°
Mean anomaly
311.5693°
Eccentric anomaly
310.8271°
Mean motion
3.28374 °/min
Orbital period
109.63 mins
BSTAR
0.00030083
Loading maneuver chart data...
Computing Atmospheric mass density...
Loading historical data...
Loading historical data...
Loading historical data...
Loading historical data...
Loading historical data...
Loading historical data...
Loading historical data...

Documentation

Showing up to 5 results
|